星链-3102 (STARLINK-3102 )

导读 | 星芒AI

STARLINK-3102 是 SpaceX Starlink 项目中的一颗低轨通信卫星,属于第三代星链卫星(也称“星链V1.5”或“星链V2”)。该卫星于2023年发射,部署在约540公里高度的近地轨道,旨在为全球用户提供高速、低延迟的互联网服务。它采用先进推进系统和激光通信技术,以提升网络效率和卫星间通信能力。STARLINK-3102 是星链星座的重要组成部分,助力实现 SpaceX 构建全球宽带网络的目标。

基本信息
目录编号:
49151
目录名称:
STARLINK-3102
国际标识:
2021-082X
轨道中心:
EARTH
卫星名称:
星链-3102
卫星全名:
星链-3102 (STARLINK-3102 )
卫星状态:
在轨 (已飞行1557 天)
发射日期:
2021-09-14 UTC
国别 :
美国 (US)
星等 :
--
轨道信息
数据来源 国际轨道数据 AOE轨道数据
星历时间 2025-12-19T01:30:27+0800
1天前
查看轨道信息
2025-12-14T12:00:00+0800
5天前
查看轨道信息
半长轴 6950.183km 6950.155km
偏心率 0.0003203 0.0002314
轨道倾角 70.000° 69.999°
近地点辐角 272.061° 274.800°
升交点赤经 98.578° 110.081°
平近点角 88.018° 320.569°
近地点 569.821km 570.411km
远地点 574.275km 573.629km
周期 96.107分钟 96.106分钟
每日圈数 14.983335 14.983423
详细信息
固有亮度:
5
最大亮度:
2.5
卫星平台:
Starlink v1.5
覆盖范围:
全球
运营商:
太空探索技术公司
运营商所在国:
美国
制造商(研发单位):
太空探索技术公司
制造商所在国:
美国
使用方式:
暂无
卫星简介
星链(Starlink)计划是由太空探索技术公司(SpaceX)提出的一个巨型低轨卫星互联网星座项目,计划在2019年至2024年间在太空搭建由约1.2万颗卫星组成的“星链”网络,其中1584颗将部署在地球上空550千米处的近地轨道,并从2020年开始工作。该卫星仍在工作。
2D轨道图
3D轨道图
轨道高度分析图
轨道倾角分析图
轨道综合分析图
查看轨道综合分析图